Regional Weather Roundup
Issued by NWS

Home | Current Version | Previous Version | Text Only | Print | Product List | Glossary On
Versions: 1 2 3 4 5 6 7 8 9 10 11 12 13 14 15 16 17 18 19 20 21 22 23 24 25 26 27 28 29 30 31 32 33 34 35 36 37 38 39 40 41 42 43 44 45 46 47 48 49 50
000
ASCA42 TJSJ 301010
RWRPR
PUERTO RICO/U.S. VIRGIN ISLANDS HOURLY WEATHER ROUNDUP
NATIONAL WEATHER SERVICE SAN JUAN PR
600 AM AST THU JUL 30 2015

PRZ001-004-301100-
PUERTO RICO

CITY           SKY/WX    TMP DP  RH WIND       PRES   REMARKS
SAN JUAN LMM   PTCLDY    81  73  78 E6        30.04R
PONCE          CLEAR     79  70  73 E6        29.99
$$

PRZ006-007-301100-
U.S. VIRGIN ISLANDS

CITY           SKY/WX    TMP DP  RH WIND       PRES   REMARKS
CHARLOTTE AMA  PTCLDY    81  73  78 E6        30.02S
CHRISTIANSTED  CLEAR     81  72  74 NE7       30.03R
$$

HOURLY WEATHER ROUNDUP FOR THE NEWS MEDIA

CITY           SKY/WX    TMP DP  RH WIND       PRES   REMARKS
ORLANDO        MOCLDY    77  76  96 S5        29.96S
NEW YORK       MOCLDY    76  71  85 S7        29.92S
NEWARK         MOCLDY    77  73  87 S6        29.90S
CHICAGO        CLEAR     68  58  70 W7        30.02S
HARTFORD       PTCLDY    72  71  97 SW7       29.89S FOG
BOSTON         PTCLDY    74  67  78 SW7       29.88S
DALLAS         CLEAR     84  64  50 CALM      30.04R
PHILADELPHIA   MOCLDY    78  72  81 S9        29.92S
LOS ANGELES    PTCLDY    68  63  84 W7        29.97F
WASHINGTON DC  MOCLDY    75  72  90 S8        29.92R



USA.gov is the U.S. government's official web portal to all federal, state and local government web resources and services.